482  
ASHW40 PHFO 282210  
RWRHI  
 
WEATHER ROUNDUP FOR HAWAII  
NATIONAL WEATHER SERVICE HONOLULU HI  
1200 PM HST SAT MAR 28 2015  
 
THIS IS AN AUTOMATED REPORT THAT HAS NOT BEEN QUALITY CONTROLLED.  
 
NOTE..."FAIR" INDICATES FEW OR NO CLOUDS BELOW 12,000 FEET WITH NO  
SIGNIFICANT WEATHER AND/OR S TO VISIBILITY
.  
 
* - THESE SITES REPORT LIMITED FIELDS  
 
HIZ001>004-282300-  
KAUAI-NIIHAU-  
 
CITY SKY/WX TMP DP RH WIND PRES REMARKS
 
LIHUE APT MOSUNNY 81 65 58 E7 30.21F  
PORT ALLEN* N/A 81 N/A N/A SE16G22 N/A  
POIPU* N/A 81 N/A N/A NE7G14 N/A  
PRINCEVILLE* N/A 77 N/A N/A MISG N/A  
KOKOLE POINT* NOT AVBL  
MOLOAA DAIRY* NOT AVBL  
WAIMEA HTS* NOT AVBL  
PUU OPAE* NOT AVBL  
PUU LUA* NOT AVBL  
MAKAHA RIDGE* NOT AVBL  

 
 
HIZ005>011-282300-  
OAHU-  
 
CITY SKY/WX TMP DP RH WIND PRES REMARKS
 
HONOLULU PTSUNNY 78 70 76 N6 30.17F  
KALAELOA LGT RAIN 76 66 71 CALM 30.20F  
KANEOHE MCB PTSUNNY 77 71 82 N9 30.16F  
WHEELER FIELD LGT RAIN 70 68 93 S5 30.19F FOG  
BELLOWS* NOT AVBL  
KAHUKU* NOT AVBL  
WHEELER* NOT AVBL  
WAIANAE HARBOR NOT AVBL  
DILLINGHAM* N/A 79 72 78 MISG N/A  
KAHUKU TRN* N/A 68 64 88 E5G12 N/A  
KAWAILOA* N/A 73 68 83 E6G12 N/A  
KII* N/A 73 68 83 NE7 N/A  
MAKUA RANGE* N/A 79 66 65 E7 N/A  
OAHU FOREST NW NOT AVBL  
SCHOFIELD BRK* N/A 57 55 94 MISG N/A  
SCHOFIELD S* NOT AVBL  
WAIANAE VLY* NOT AVBL  
KUAOKALA* NOT AVBL  
HONOULIUULI* NOT AVBL  
MOKUOLOE IS* NOT AVBL  
PALEHUA* NOT AVBL  
WAIAWA PHB* NOT AVBL  

 
 
HIZ012>013-282300-  
MOLOKAI-  
 
CITY SKY/WX TMP DP RH WIND PRES REMARKS
 
MOLOKAI AIRPT MOSUNNY 78 67 68 NE12G17 30.17F  
KALAUPAPA NOT AVBL  
MAKAPULAPAI* NOT AVBL  
MOLOKAI 1* NOT AVBL  
PUU ALII* NOT AVBL  

 
 
HIZ016-282300-  
KAHOOLAWE-  
 
CITY SKY/WX TMP DP RH WIND PRES REMARKS
 
KAHOOLAWE* NOT AVBL  
HAKIOAWA* NOT AVBL  
HONOKANAIA* N/A 81 69 65 E18G33 30.17F  
KANELOA* N/A 79 70 73 MISG 29.39R  
KEALIALALO* NOT AVBL  
LUA MAKIKA* NOT AVBL  

 
 
HIZ014>015-282300-  
LANAI-  
 
CITY SKY/WX TMP DP RH WIND PRES REMARKS
 
LANAI CITY N/A N/A N/A N/A MISG N/A  
LANAI 1* NOT AVBL  

 
 
HIZ017>028-282300-  
MAUI-  
 
CITY SKY/WX TMP DP RH WIND PRES REMARKS
 
KAHULUI MOSUNNY 84 64 50 SW3 30.14F  
KAPALUA-W MAUI MOSUNNY 81 68 65 NE14 30.16  
HANA AIRPORT CLOUDY 77 68 73 E12 30.20S  
HANA* N/A 77 N/A N/A E9G20 N/A  
HALEAKALA SUMM N/A 57 14 18 SE15G30 N/A  
MAALAEA BAY* NOT AVBL  
HALEAKALA* NOT AVBL  
KAUPO GAP* NOT AVBL  
KULA 1* N/A 60 54 80 NW5G10 N/A  

 
 
HIZ023>026-282300-  
BIG ISLAND OF HAWAII COAST AND LOWER SLOPES-  
 
CITY SKY/WX TMP DP RH WIND PRES REMARKS
 
KAILUA KONA SUNNY 84 67 56 SW12 30.13F  
HILO CLOUDY 78 69 73 MISG 30.17F  
HONOKAA* NOT AVBL  
KAWAIHAE MWT* N/A 81 N/A N/A W7 N/A  
KAWAIHAE* N/A 79 N/A N/A W6G12 N/A  
SOUTH POINT* NOT AVBL  
UPOLU AIRPORT* N/A N/A N/A N/A E16G26 N/A  
KAMUELA* PTCLDY 75 61 60 SW14 30.24F  
HAKALAU* N/A 65 54 68 SE8G17 N/A  
KALOKO-HONOKO* NOT AVBL  
PALI 2* N/A 70 59 68 E12G23 N/A  
KEALAKOMO* N/A 82 66 57 E14G20 N/A  
KAUPULEHU* NOT AVBL  
KAPAPALA* N/A 76 64 65 E6G17 N/A  
LOWER KAHUKU* NOT AVBL  
PUHE CS* NOT AVBL  
PUHO CS* NOT AVBL  
PTA KEAMUKU* N/A 70 59 68 CALM N/A  
WAIKOLOA* NOT AVBL  

 
 
HIZ027>028-282300-  
BIG ISLAND OF HAWAII INTERIOR AND SUMMMITS-  
 
CITY SKY/WX TMP DP RH WIND PRES REMARKS
 
BRADSHAW FIELD MOSUNNY 66 52 60 W9G18 30.43F  
MK VISITOR CEN NOT AVBL  
MAUNA KEA* N/A 43 -4 14 SE9 N/A  
MAUNA LOA* N/A 54 34 47 MISG N/A  
MAUNA LOA 1* NOT AVBL  
PTA KIPUKA* N/A 70 55 60 N9 N/A  
PTA RANGE 17* N/A 64 52 63 NW10G17 N/A  
PTA WEST* N/A 64 57 77 NW10G16 N/A  
NENE CABIN* NOT AVBL  
AHUMOA* NOT AVBL  
PTA PORTABLE* NOT AVBL  
PUU MALI* NOT AVBL  

 
 
HIC003-282300-  
NORTHWEST ISLANDS-  
 
CITY SKY/WX TMP DP RH WIND PRES REMARKS
 
MIDWAY ISLAND SUNNY 70 50 49 NE10 30.36S  
MIDWAY NOS* NOT AVBL  
FRENCH FRIGATE NOT AVBL  

 
 
PHZ110>124-180-282300-  
BUOY REPORTS  
 
STATION/POSITION TIME TEMP WIND PRES WAVE SWELL
 
AIR SEA DIR/SP/G HT/PER HT/DIR  
(UTC) (F) (DEG/KT/KT) (MB) (FT/S) (FT/D)  
BUOY 51001 NOT AVBL  
BUOY 51101 2200 72 72 130/ 10/ 14 1022.6F 5/ 8 5/130  
BUOY 51100 2100 73 74 110/ 12/ 14 1023.8  
BUOY 51003 2100 76 78 80/ 14/ 17 1022.1F 7/ 8 5  
BUOY 51004 2129 73 77 60/ 16/ 19 1019.3F 9/ 8 7/ 80  
BARBERS PT BUOY NOT AVBL  
WAIMEA BAY BUOY 2200 76 N/A 3/10  
KAILUA BAY BUOY 2200 76 N/A 6/ 8 2/ 10  
LANAI BUOY 2200 77 N/A 2/13 2/180  
BARBERS PT 2 2200 78 N/A 5/15 3/170  
PAUWELA MAUI 2200 76 N/A 7/ 8 2/360  
HILO 2200 78 N/A 8/ 8 2/340  
KANEOHE BAY BUOY 2200 76 N/A 5/ 8 2/360  
HANALEI KAUAI 2200 76 N/A 5/ 8 2  
KAHULUI HARBOR 2200 81 77 CALM / 1 1020.4F  
HONOLULU HARBOR 2200 74 76 300/ 5/ 5 1022.0F  
KILO NALU NOT AVBL  
HILO HARBOR 2200 80 77 190/ 1/ 5 1021.4F  
MOKUOLOE 2200 72 76 310/ 8/ 9 1022.4F  
NAWILIWILI 2200 76 78 90/ 8/ 10 1022.5F  
WHOTS BUOY NOT AVBL  
BUOY 51028 NOT AVBL  

 
   
.....................KEY.....................................
 
 
SKY/WX - SKY CONDITIONS/PRESENT WEATHER  
TMP - TEMPERATURE IN FAHRENHEIT  
DWPT - DEWPOINT IN FAHRENHEIT  
RH - RELATIVE HUMIDITY IN PERCENT  
WIND - DIRECTION AND SPEED /MPH FOR ISLANDS...KTS FOR BUOYS/  
PRES - MEAN SEA LEVEL PRESSURE IN INCHES OF HG  
VSB - VISIBILITY IN MILES  
HX - HEAT INDEX  
WCI - WIND CHILL INDEX  
VRB - VARIABLE WIND DIRECTION  
N/A - NOT AVAILABLE  
 
CLICK HERE TO GO TO PREVIOUS BULLETINS.

The Nexlab HI Page Main Text Page

The Nexlab HI Page Main Text Page